14:37
Airports
History
Links
Donate
Help keep this website running!
PayPal
Bitcoin
This page is community maintained. The information is intended for PC simulator navigation or reference.
Always use approved charts for navigation.
BIMS
Mosfellssveit
Mosfellssveit (BIMS)
Mosfellsbær, Capital Region, Iceland
4
Lat/Lng:64° 10' 58.14" N / 21° 42' 20.35" W
64.182816 / -21.705652
Elevation:6'ft / 2mMSL
ID / ICAO:BIMS
Runways:1
Longest:07-25
Grass 451m / 1,478ft
Nearby Weather14:00 GMT 2017-12-18
Nearby weather at BIRK, Reykjavik located 8.1 nautical miles from BIMS
Altimeter: 29.21
Visibility: 4.3 statute miles
Wind: 7 knots (from 140°)
Temp: 5°c / 41°f
Humidity: 86.9%

METAR: BIRK 181400Z 14007KT 7000 -RA BR FEW017 OVC038 05/03 Q0989

(Powered by phpweather)
Nearby VORs <50NM
Nearby NDBs
Runway 07 / 25
Dimensions:450.6 x 27.4m 1478' x 90'ft
Surface:Grass
Runway 07 [A]Runway 25 [B]
Heading:048°TH 228°TH
Lat:
Lng:
64° 10' 53.28"N
21° 42' 33.18"W
64° 11' 2.99"N
21° 42' 7.51"W
User Notes and Comments
64° 10' 58.14" N / 21° 42' 20.35" W
Distance To
Airport ID:
Nearby Airports
(C) Reykjavik 8.1 NM
BIRK ( WX ) WSW 242°
4 Sandskeid 9.1 NM
BISS SSE 154°
4 Selfoss 26.7 NM
BISF SE 130°
(C) KEFLAVIK NAS 31.1 NM
BIKF WSW 242°
4 Stori Kroppur 32.1 NM
BISR N 11°
4 Forsaeti 37.7 NM
BIFZ SE 127°
4 Fludir 41.6 NM
BIFL E 93°
VFR Chart
Flight Planning at SkyVector.com